Location: Brno
(49.2000°N, 16.6330°E)
Time: 09:26:30
(UTC+02:00)

Cosmos 1603 - Visible Passes

Search period start: 29 June 2016 00:00
Search period end: 09 July 2016 00:00
Orbit: 832 x 859 km, 71.0° (Epoch: 28 June)

Date Brightness Start Highest point End Pass type
(mag) Time Alt. Az. Time Alt. Az. Time Alt. Az.
29 Jun 4.1 00:52:14 10° NW 00:57:41 48° WSW 01:00:14 29° SSW visible
29 Jun 4.9 22:54:16 10° NNW 22:59:27 35° NE 23:04:32 10° ESE visible
30 Jun 4.1 00:38:19 10° NW 00:43:47 50° WSW 00:46:24 29° SSW visible
30 Jun 4.9 22:40:23 10° NNW 22:45:32 34° NE 22:50:41 10° ESE visible
01 Jul 4.1 00:24:24 10° NW 00:29:54 51° WSW 00:32:37 28° S visible
01 Jul 4.9 22:26:29 10° NNW 22:31:37 33° NE 22:36:44 10° ESE visible
02 Jul 4.1 00:10:29 10° NW 00:16:00 53° WSW 00:18:52 27° S visible
02 Jul 4.9 22:12:36 10° NNW 22:17:42 32° NE 22:22:47 10° ESE visible
02 Jul 4.1 23:56:34 10° NW 00:02:07 54° WSW 00:05:08 26° S visible
03 Jul 5.0 21:58:43 10° NNW 22:03:47 32° NE 22:08:51 10° ESE visible
03 Jul 4.0 23:42:40 10° NW 23:48:13 56° WSW 23:51:27 25° S visible
04 Jul 5.0 21:44:49 10° NNW 21:49:52 31° NE 21:54:54 10° ESE visible
04 Jul 4.0 23:28:45 10° NW 23:34:19 57° WSW 23:37:47 23° S visible
05 Jul 4.0 23:14:51 10° NW 23:20:26 59° WSW 23:24:10 21° S visible
06 Jul 4.0 23:00:56 10° NW 23:06:32 61° WSW 23:10:35 19° S visible
07 Jul 4.0 22:47:01 10° NNW 22:52:39 62° WSW 22:57:02 17° S visible
08 Jul 4.0 22:33:06 10° NNW 22:38:46 64° WSW 22:43:31 15° SSE visible
